This is the latest recevied weather packets stored in our database for station/object OE3APM-13. If no packets are shown the sender has not sent any weather packets the latest 10 day(s).
| Time | Temp. | Humidity | Pressure | Rain* | Wind** | Luminosity | Snow |
|---|---|---|---|---|---|---|---|
| 1787825539 | 25.56° C | 52% | 1018.9 hPa | 0 mm | - | 754 W/m² | - |
| 1787825243 | 25.56° C | 51% | 1019 hPa | 0 mm | - | 747 W/m² | - |
| 1787824940 | 25.56° C | 51% | 1019 hPa | 0 mm | - | 740 W/m² | - |
| 1787824641 | 25° C | 52% | 1018.9 hPa | 0 mm | - | 738 W/m² | - |
| 1787824343 | 25° C | 52% | 1018.9 hPa | 0 mm | - | 671 W/m² | - |
| 1787824041 | 25° C | 52% | 1018.8 hPa | 0 mm | - | 710 W/m² | - |
| 1787823731 | 25° C | 52% | 1018.7 hPa | 0 mm | - | 722 W/m² | - |
| 1787823431 | 25° C | 52% | 1018.7 hPa | 0 mm | - | 724 W/m² | - |
| 1787823130 | 24.44° C | 54% | 1018.7 hPa | 0 mm | - | 726 W/m² | - |
| 1787822832 | 24.44° C | 56% | 1018.7 hPa | 0 mm | - | 700 W/m² | - |
| 1787822530 | 24.44° C | 54% | 1018.8 hPa | 0 mm | - | 703 W/m² | - |
| 1787822231 | 24.44° C | 55% | 1018.8 hPa | 0 mm | - | 698 W/m² | - |
| 1787821930 | 23.89° C | 57% | 1018.8 hPa | 0 mm | - | 689 W/m² | - |
| 1787821628 | 23.89° C | 56% | 1018.9 hPa | 0 mm | - | 643 W/m² | - |
| 1787821325 | 23.89° C | 57% | 1018.7 hPa | 0 mm | - | 682 W/m² | - |
| 1787821024 | 23.33° C | 57% | 1018.7 hPa | 0 mm | - | 677 W/m² | - |
| 1787820722 | 23.33° C | 58% | 1018.7 hPa | 0 mm | - | 671 W/m² | - |
| 1787820425 | 23.33° C | 59% | 1018.7 hPa | 0 mm | - | 670 W/m² | - |
| 1787820122 | 22.78° C | 59% | 1018.8 hPa | 0 mm | - | 601 W/m² | - |
| 1787819823 | 22.78° C | 61% | 1018.7 hPa | 0 mm | - | 443 W/m² | - |
| 1787819524 | 22.22° C | 61% | 1018.7 hPa | 0 mm | - | 647 W/m² | - |
| 1787819216 | 21.67° C | 62% | 1018.7 hPa | 0 mm | - | 459 W/m² | - |
| 1787818910 | 21.67° C | 63% | 1018.7 hPa | 0 mm | - | 578 W/m² | - |
| 1787818608 | 21.11° C | 63% | 1018.8 hPa | 0 mm | - | 608 W/m² | - |
| 1787818300 | 21.11° C | 65% | 1018.9 hPa | 0 mm | - | 599 W/m² | - |
* Rain latest hour (hover to see other rain measurements)
** Current wind speed in m/s (hover to see current wind gust speed)